Regional Weather Roundup
Issued by NWS

Home | Current Version | Previous Version | Graphics & Text | Print | Product List | Glossary On
Versions: 1 2 3 4 5 6 7 8 9 10 11 12 13 14 15 16 17 18 19 20 21 22 23 24 25 26 27
000
ASUS45 KCYS 231710
RWRWY

WYOMING REGIONAL WEATHER ROUNDUP
NATIONAL WEATHER SERVICE CHEYENNE WY
1100 AM MDT TUE AUG 23 2016

NOTE:  "FAIR" INDICATES FEW OR NO CLOUDS BELOW 12,000 FEET
WITH NO SIGNIFICANT WEATHER AND/OR OBSTRUCTIONS TO VISIBILITY.

WYZ001-231800-
YELLOWSTONE NATIONAL PARK

CITY           SKY/WX    TMP DP  RH WIND       PRES   REMARKS
LK YELLOWSTONE   N/A     61   9  12 VRB6      30.24S
W YELLOWSTONE  NOT AVBL

$$
WYZ002>013-054>058-071-098>099-231800-
NORTHERN WYOMING

CITY           SKY/WX    TMP DP  RH WIND       PRES   REMARKS
JACKSON        SUNNY     66  21  18 S14       30.16F
CODY           FAIR      64  32  29 N10       30.08F
GREYBULL       FAIR      69  26  20 E6        30.02R
WORLAND        FAIR      70  26  19 N5        30.04R
SHERIDAN       FAIR      71  29  21 NW12      30.05S
BUFFALO        FAIR      68  25  19 N12G24    30.10R
GILLETTE       FAIR      69  28  21 N12G23    30.04R
HULETT         FAIR      68  30  24 NW16      30.03S
NEWCASTLE      FAIR      72  23  16 N21G26    29.97S

$$
WYZ014>020-022>026-101>103-231800-
CENTRAL WYOMING

CITY           SKY/WX    TMP DP  RH WIND       PRES   REMARKS
BIG PINEY      FAIR      70  21  15 NW8       30.22S
PINEDALE       FAIR      66  16  14 N7        30.23S
DUBOIS         FAIR      68  12  11 NW20G38   30.15S
LANDER         FAIR      76  20  12 SE12      30.09S
RIVERTON       FAIR      72  18  13 VRB7      30.08S
CASPER         FAIR      71  23  16 VRB3      30.09S
DOUGLAS        FAIR      75  23  14 NW9       30.07S

$$
WYZ021-027>030-104>119-231800-
SOUTHERN WYOMING

CITY           SKY/WX    TMP DP  RH WIND       PRES   REMARKS
EVANSTON       FAIR      73  32  22 W14G22    30.25S
FORT BRIDGER   FAIR      73  28  18 NW7G16    30.27R
ROCK SPRINGS   FAIR      68  12  11 W9        30.22S
DIXON          FAIR      73  36  26 W10G17    30.25S
RAWLINS        FAIR      70  19  14 W18G25    30.19S
SARATOGA       FAIR      73  27  17 W15G24    30.22S
LARAMIE        FAIR      74  14  10 NW20G33   30.19S
CHEYENNE       FAIR      76  23  14 NW20G30   30.09R
TORRINGTON     FAIR      78  27  15 NW17      29.98R
PINE BLUFFS    FAIR      79  27  14 NW18      30.04R

$$




USA.gov is the U.S. government's official web portal to all federal, state and local government web resources and services.